Home   Weather   Warsaw   Past weeks
Flag for Poland

Past Weather in Warsaw, Poland — Yesterday and Last 2 Weeks

Now
48 °F

Fog.


Feels Like: 46 °F
Forecast: 69 / 52 °F
Wind: 5 mph from Southeast

Location: Warsaw Okecie Airport

Current Time: Oct 20, 2019 at 3:14:45 am

Latest Report: Oct 20, 2019 at 2:30 am


Visibility: 3 mi

Pressure: 29.95 "Hg

Humidity: 100%

Dew Point: 48 °F

Location of WarsawLocation

Past Weather in Warsaw — Graph

°F

Warsaw Temperature Yesterday

Maximum temperature yesterday: 64 °F (at 12:30 pm)
Minimum temperature yesterday: 46 °F (at 5:00 am)
Average temperature yesterday: 56 °F

High & Low Weather Summary for the Past Weeks

 TemperatureHumidityPressure
High75 °F (Oct 13, 3:00 pm)100% (Oct 8, 3:00 am)30.12 "Hg (Oct 8, 3:00 am)
Low32 °F (Oct 8, 4:30 am)43% (Oct 6, 1:00 pm)29.68 "Hg (Oct 10, 4:30 am)
Average54 °F78%29.94 "Hg
* Reported Oct 5 2:00 am — Oct 20 2:00 am, Warsaw. Weather by CustomWeather, © 2019

Note: Actual official high and low records may vary slightly from our data, if they occured in-between our weather recording intervals... More about our weather records

Advertising

Warsaw Weather History for the Previous 24 Hours

Scroll right to see more
 ConditionsComfort  
Time TempWeatherWind HumidityBarometerVisibility
2:00 am
Sun, Oct 20
48 °FFog.6 mph100%29.95 "Hg2 mi
1:30 am48 °FFog.5 mph100%29.95 "Hg2 mi
1:00 am48 °FFog.5 mph100%29.95 "Hg2 mi
12:30 am50 °FFog.5 mph94%29.95 "Hg4 mi
12:00 am50 °FClear.6 mph100%29.95 "Hg4 mi
11:30 pm
Sat, Oct 19
48 °FFog.1 mph100%29.95 "Hg4 mi
11:00 pm54 °FFog.5 mph94%29.95 "Hg5 mi
10:30 pm54 °FClear.5 mph94%29.95 "Hg6 mi
10:00 pm54 °FClear.3 mph94%29.95 "Hg10 mi
9:30 pm55 °FFog.5 mph88%29.95 "HgN/A
9:00 pm55 °FClear.6 mph88%29.95 "Hg10 mi
8:30 pm57 °FClear.5 mph88%29.95 "HgN/A
8:00 pm57 °FClear.2 mph88%29.95 "Hg10 mi
7:30 pm57 °FPassing clouds.3 mph88%29.95 "HgN/A
7:00 pm59 °FPassing clouds.3 mph82%29.95 "HgN/A
6:30 pm57 °FPassing clouds.3 mph88%29.95 "HgN/A
6:00 pm57 °FClear.No wind88%29.95 "Hg10 mi
5:30 pm61 °FSunny.2 mph77%29.95 "Hg10 mi
5:00 pm63 °FPassing clouds.3 mph73%29.95 "HgN/A
4:30 pm63 °FSunny.5 mph77%29.95 "Hg10 mi
4:00 pm64 °FSunny.3 mph73%29.95 "Hg10 mi
3:30 pm64 °FPassing clouds.3 mph73%29.95 "HgN/A
3:00 pm64 °FPassing clouds.5 mph68%29.95 "HgN/A
2:30 pm64 °FSunny.6 mph68%29.95 "Hg10 mi
2:00 pm64 °FSunny.6 mph68%29.95 "Hg10 mi
1:30 pm64 °FPassing clouds.3 mph73%29.95 "HgN/A
1:00 pm64 °FPassing clouds.5 mph68%29.95 "HgN/A
12:30 pm64 °FPassing clouds.5 mph68%29.95 "HgN/A
12:00 pm63 °FPassing clouds.5 mph73%29.95 "HgN/A
11:30 am63 °FPassing clouds.3 mph73%29.95 "HgN/A
11:00 am63 °FSunny.2 mph73%29.95 "Hg10 mi
10:30 am59 °FSunny.2 mph77%29.95 "Hg10 mi
10:00 am57 °FPassing clouds.3 mph77%29.95 "HgN/A
9:30 am55 °FSunny.3 mph88%29.95 "Hg10 mi
9:00 am50 °FClear.5 mph100%29.95 "Hg5 mi
8:30 am50 °FSunny.2 mph94%29.95 "Hg10 mi
8:00 am48 °FSunny.3 mph100%29.95 "Hg10 mi
7:30 am46 °FFog.2 mph100%29.95 "HgN/A
7:00 am48 °FFog.2 mph100%29.95 "HgN/A
6:30 am48 °FClear.2 mph100%29.92 "Hg10 mi
6:00 am46 °FClear.3 mph100%29.92 "Hg10 mi
5:30 am48 °FClear.3 mph94%29.92 "Hg10 mi
5:00 am46 °FClear.5 mph100%29.92 "Hg10 mi
4:30 am50 °FClear.5 mph88%29.92 "Hg10 mi
4:00 am48 °FClear.5 mph94%29.92 "Hg10 mi
3:30 am50 °FClear.6 mph94%29.92 "Hg10 mi
3:00 am50 °FClear.5 mph94%29.92 "Hg10 mi
Weather by CustomWeather, © 2019

See weather overview